"2016-06-26 00:00:00",1755289,5.104,131.6,3.107,0.305,21.92,108.7012,21.56,22.59,35.34,0,111.1,13.06,22.39,93.6
"2016-06-26 00:00:30",1755290,5.771,136.3,3.246,0.373,21.85,108.7012,21.56,22.59,35.27,0,111.1,13.06,22.39,98.3
"2016-06-26 00:01:00",1755291,5.415,137.5,5.298,0.329,21.7,108.7009,21.56,22.59,34.96,0,111.1,13.06,22.39,99.5
"2016-06-26 00:01:30",1755292,5.496,133.3,2.759,0.311,21.67,108.7012,21.56,22.58,34.71,0,111.1,13.06,22.39,95.3
"2016-06-26 00:02:00",1755293,6.369,137.4,2.294,0.294,21.69,108.7006,21.56,22.57,34.62,0,111.1,13.06,22.38,99.4
"2016-06-26 00:02:30",1755294,6.515,136.9,2.217,0.637,21.78,108.7003,21.56,22.57,34.49,0,111.1,13.06,22.38,98.9
"2016-06-26 00:03:00",1755295,6.372,137.9,3.183,0.516,21.83,108.7,21.56,22.57,34.56,0,111.1,13.06,22.38,99.9
"2016-06-26 00:03:30",1755296,7.169,135,3.182,0.172,21.9,108.6988,21.55,22.57,34.67,0,111.1,13.05,22.38,97.0
"2016-06-26 00:04:00",1755297,6.924,132.2,1.753,0.183,21.89,108.6978,21.55,22.54,34.55,0,111.1,13.06,22.38,94.2
"2016-06-26 00:04:30",1755298,7.15,131.5,2.375,0.304,21.96,108.6975,21.55,22.56,34.62,0,111.1,13.06,22.38,93.5
"2016-06-26 00:05:00",1755299,7.083,129.9,2.699,0.345,21.93,108.6988,21.55,22.56,34.76,0,111.1,13.06,22.38,91.9
"2016-06-26 00:05:30",1755300,7.53,139.5,2.73,0.444,22.02,108.6985,21.55,22.56,34.55,0,111.1,13.06,22.38,101.5
"2016-06-26 00:06:00",1755301,6.91,136.3,3.927,0.261,22.02,108.6991,21.55,22.56,34.7,0,111.1,13.06,22.38,98.3
"2016-06-26 00:06:30",1755302,6.991,143.5,5.618,0.671,22,108.6986,21.55,22.55,34.96,0,111.1,13.06,22.38,105.5
"2016-06-26 00:07:00",1755303,6.898,141.6,3.927,0.168,22,108.6919,21.54,22.53,34.38,0,111.1,13.05,22.36,103.6
"2016-06-26 00:07:30",1755304,7.035,133.5,1.617,0.307,21.92,108.6909,21.53,22.54,34.25,0,111.1,13.05,22.36,95.5
"2016-06-26 00:08:00",1755305,7.08,135.1,1.452,0.278,21.94,108.6823,21.51,22.53,34.65,0,111.1,13.05,22.34,97.1
"2016-06-26 00:08:30",1755306,6.603,137.6,2.196,0.332,22,108.6778,21.5,22.53,34.73,0,111.1,13.05,22.33,99.6
"2016-06-26 00:09:00",1755307,6.738,142.6,5.548,0.219,21.99,108.6736,21.49,22.53,35,0,111.1,13.05,22.32,104.6
"2016-06-26 00:09:30",1755308,6.875,145.8,3.473,0.214,22,108.6712,21.48,22.53,34.93,0,111.1,13.05,22.31,107.8
"2016-06-26 00:10:00",1755309,6.619,143.7,2.38,0.218,21.96,108.6714,21.48,22.51,34.86,0,111.1,13.05,22.31,105.7
"2016-06-26 00:10:30",1755310,6.763,139.9,4.328,0.457,21.9,108.6681,21.47,22.52,34.51,0,111.1,13.05,22.30,101.9
"2016-06-26 00:11:00",1755311,7.22,139.8,2.92,0.212,21.96,108.6653,21.47,22.51,34.39,0,111.1,13.05,22.29,101.8
"2016-06-26 00:11:30",1755312,7.55,139.4,2.914,0.215,22,108.6669,21.47,22.5,34.19,0,111.1,13.05,22.30,101.4
"2016-06-26 00:12:00",1755313,6.666,138.6,3.407,0.252,22,108.6666,21.47,22.5,34.32,0,111.1,13.05,22.30,100.6
"2016-06-26 00:12:30",1755314,6.524,142.2,5.436,0.319,22.03,108.6666,21.47,22.5,34.33,0,111.1,13.05,22.30,104.2
"2016-06-26 00:13:00",1755315,6.925,136,3.882,0.309,21.97,108.6666,21.47,22.49,34.28,0,111.1,13.05,22.30,98.0
"2016-06-26 00:13:30",1755316,6.456,138.7,2.723,0.271,21.96,108.666,21.47,22.5,34.32,0,111.1,13.05,22.30,100.7
"2016-06-26 00:14:00",1755317,6.279,134.6,2.583,0.404,22.06,108.6656,21.47,22.49,34.65,0,111.1,13.05,22.29,96.6
"2016-06-26 00:14:30",1755318,6.135,134.1,3.9,0.425,22.01,108.6629,21.46,22.48,34.72,0,111.1,13.05,22.29,96.1
"2016-06-26 00:15:00",1755319,5.291,140.1,9.63,0.542,22.01,108.6656,21.47,22.46,34.55,0,111.1,13.05,22.29,102.1
"2016-06-26 00:15:30",1755320,6.856,141.6,4.276,0.351,22.03,108.6614,21.46,22.48,34.53,0,111.1,13.05,22.28,103.6
"2016-06-26 00:16:00",1755321,6.025,137,4.452,0.468,22,108.662,21.46,22.48,34.78,0,111.1,13.05,22.29,99.0
"2016-06-26 00:16:30",1755322,5.176,141.6,2.398,0.322,22.17,108.6635,21.46,22.48,34.94,0,111.1,13.05,22.29,103.6
"2016-06-26 00:17:00",1755323,5.135,144.1,4.968,0.548,22,108.6654,21.47,22.47,35.03,0,111.1,13.05,22.29,106.1
"2016-06-26 00:17:30",1755324,5.334,144.5,2.098,0.451,22.07,108.6638,21.46,22.47,34.87,0,111.1,13.05,22.29,106.5
"2016-06-26 00:18:00",1755325,6.009,142.5,4.108,0.811,21.93,108.6605,21.45,22.46,34.69,0,111.1,13.05,22.28,104.5
"2016-06-26 00:18:30",1755326,6.617,143.6,1.168,0.186,21.97,108.6623,21.46,22.45,34.22,0,111.1,13.05,22.29,105.6
"2016-06-26 00:19:00",1755327,6.095,143.5,2.268,0.223,21.99,108.6621,21.46,22.46,33.85,0,111.1,13.05,22.29,105.5
"2016-06-26 00:19:30",1755328,5.921,143,2.317,0.176,22.09,108.6714,21.48,22.47,33.48,0,111.1,13.05,22.31,105.0
"2016-06-26 00:20:00",1755329,5.492,135.1,4.641,0.335,22.04,108.6838,21.51,22.46,33.42,0,111.1,13.05,22.34,97.1
"2016-06-26 00:20:30",1755330,5.63,142.2,7.264,0.357,22.02,108.6921,21.54,22.48,33.29,0,111.1,13.04,22.36,104.2
"2016-06-26 00:21:00",1755331,5.557,144.5,4.451,0.403,22.01,108.6933,21.54,22.48,33.72,0,111.1,13.05,22.37,106.5
"2016-06-26 00:21:30",1755332,6.107,135,3.503,0.181,21.89,108.6926,21.54,22.5,33.86,0,111.1,13.05,22.36,97.0
"2016-06-26 00:22:00",1755333,5.65,135.4,4.28,0.382,21.91,108.6924,21.54,22.51,34.09,0,111.1,13.04,22.36,97.4
"2016-06-26 00:22:30",1755334,5.804,149.7,3.434,0.265,22.07,108.693,21.54,22.52,34.18,0,111.1,13.04,22.37,111.7
"2016-06-26 00:23:00",1755335,6.023,151.6,6.003,0.378,22.05,108.6935,21.54,22.52,33.71,0,111.1,13.04,22.37,113.6
"2016-06-26 00:23:30",1755336,6.196,156.6,2.747,0.302,22.1,108.7008,21.56,22.54,33.81,0,111.1,13.04,22.39,118.6
"2016-06-26 00:24:00",1755337,5.615,160.4,6.741,0.294,22.12,108.7143,21.59,22.54,33.7,0,111.1,13.04,22.42,122.4
"2016-06-26 00:24:30",1755338,5.963,161,5.112,0.267,22.12,108.7255,21.62,22.55,33.67,0,111.1,13.04,22.45,123.0
"2016-06-26 00:25:00",1755339,5.107,175.5,11.27,0.686,22.07,108.7261,21.62,22.57,33.69,0,111.1,13.04,22.45,137.5
"2016-06-26 00:25:30",1755340,3.657,164.3,12.58,0.602,21.99,108.7258,21.62,22.57,33.55,0,111.1,13.04,22.45,126.3
"2016-06-26 00:26:00",1755341,3.683,153.8,10.35,0.386,21.91,108.7258,21.62,22.6,33.62,0,111.1,13.04,22.45,115.8
"2016-06-26 00:26:30",1755342,3.452,154.9,17.13,0.273,21.89,108.728,21.63,22.59,33.53,0,111.1,13.04,22.46,116.9
"2016-06-26 00:27:00",1755343,3.882,130.2,4.134,0.533,21.82,108.7345,21.64,22.62,33.4,0,111.1,13.04,22.47,92.2
"2016-06-26 00:27:30",1755344,3.717,126,3.73,0.385,21.84,108.7468,21.68,22.61,33.87,0,111.1,13.04,22.50,88.0
"2016-06-26 00:28:00",1755345,4.276,137.1,5.759,0.278,21.92,108.758,21.7,22.62,33.25,0,111.1,13.05,22.53,99.1
"2016-06-26 00:28:30",1755346,3.813,135.4,8.66,0.31,21.82,108.757,21.7,22.62,33.96,0,111.1,13.05,22.53,97.4
"2016-06-26 00:29:00",1755347,4.515,148,4.294,0.491,21.98,108.7549,21.7,22.64,33.73,0,111.1,13.05,22.52,110.0
"2016-06-26 00:29:30",1755348,4.622,148.1,4.995,0.263,21.97,108.7534,21.69,22.65,33.46,0,111.1,13.05,22.52,110.1
"2016-06-26 00:30:00",1755349,4.846,154.4,6.635,0.318,22.04,108.7522,21.69,22.66,33.39,0,111.1,13.05,22.52,116.4
"2016-06-26 00:30:30",1755350,5.125,145.4,2.671,0.37,21.93,108.7562,21.7,22.67,33.3,0,111.1,13.05,22.53,107.4
"2016-06-26 00:31:00",1755351,4.851,144.9,4.666,0.42,21.92,108.7706,21.74,22.68,33.33,0,111.1,13.05,22.56,106.9
"2016-06-26 00:31:30",1755352,4.642,146.7,8.15,0.192,21.96,108.7767,21.75,22.71,34.1,0,111.1,13.05,22.58,108.7
"2016-06-26 00:32:00",1755353,4.999,147.7,2.793,0.238,21.93,108.7773,21.75,22.7,33.86,0,111.1,13.05,22.58,109.7
"2016-06-26 00:32:30",1755354,6.006,143.1,2.316,0.4,21.96,108.7767,21.75,22.71,33.92,0,111.1,13.05,22.58,105.1
"2016-06-26 00:33:00",1755355,6.407,145.2,2.224,0.213,22.04,108.7758,21.75,22.72,33.71,0,111.1,13.05,22.58,107.2
"2016-06-26 00:33:30",1755356,6.349,146.8,1.863,0.201,22.05,108.7758,21.75,22.74,33.71,0,111.1,13.05,22.58,108.8
"2016-06-26 00:34:00",1755357,6.185,141.2,2.402,0.154,22.04,108.7767,21.75,22.74,33.6,0,111.1,13.05,22.58,103.2
"2016-06-26 00:34:30",1755358,6.067,140.7,1.157,0.234,22.05,108.7758,21.75,22.75,33.52,0,111.1,13.05,22.58,102.7
"2016-06-26 00:35:00",1755359,5.824,137,1.845,0.159,22.08,108.7785,21.76,22.76,33.35,0,111.1,13.05,22.59,99.0
"2016-06-26 00:35:30",1755360,4.953,138,3.978,0.452,22.07,108.7764,21.75,22.76,33.29,0,111.1,13.05,22.58,100.0
"2016-06-26 00:36:00",1755361,4.03,138,4.465,0.482,22.05,108.7792,21.76,22.77,33.25,0,111.1,13.05,22.59,100.0
"2016-06-26 00:36:30",1755362,5.039,154.1,5.662,0.439,22.17,108.7773,21.75,22.76,33.19,0,111.1,13.05,22.58,116.1
"2016-06-26 00:37:00",1755363,5.38,158.4,2.002,0.246,22.17,108.7782,21.76,22.77,32.94,0,111.1,13.05,22.58,120.4
"2016-06-26 00:37:30",1755364,6.041,157.5,4.028,0.315,22.14,108.7782,21.76,22.76,32.9,0,111.1,13.05,22.58,119.5
"2016-06-26 00:38:00",1755365,6.608,151.9,5.752,0.268,22.16,108.7761,21.75,22.76,32.86,0,111.1,13.05,22.58,113.9
"2016-06-26 00:38:30",1755366,6.538,152.3,2.314,0.215,22.18,108.7798,21.76,22.76,33.07,0,111.1,13.05,22.59,114.3
"2016-06-26 00:39:00",1755367,5.667,151,4.913,0.244,22.16,108.7767,21.75,22.77,33.12,0,111.1,13.05,22.58,113.0
"2016-06-26 00:39:30",1755368,5.631,154.9,4.641,0.252,22.22,108.7773,21.75,22.76,33.17,0,111.1,13.04,22.58,116.9
"2016-06-26 00:40:00",1755369,5.877,151.6,7.402,0.204,22.12,108.7792,21.76,22.78,33.27,0,111.1,13.04,22.59,113.6
"2016-06-26 00:40:30",1755370,5.942,157.4,3.054,0.299,22.11,108.7788,21.76,22.79,33.29,0,111.1,13.04,22.59,119.4
"2016-06-26 00:41:00",1755371,5.926,155.8,2.934,0.206,22.06,108.7804,21.76,22.78,33.39,0,111.1,13.04,22.59,117.8
"2016-06-26 00:41:30",1755372,6.241,156,2.841,0.258,22.11,108.7807,21.76,22.78,33.34,0,111.1,13.04,22.59,118.0
"2016-06-26 00:42:00",1755373,5.927,153.2,5.506,0.166,22.18,108.7816,21.77,22.8,33.31,0,111.1,13.04,22.59,115.2
"2016-06-26 00:42:30",1755374,4.979,145.9,4.258,0.186,22.11,108.7815,21.77,22.8,33.11,0,111.1,13.04,22.59,107.9
"2016-06-26 00:43:00",1755375,5.097,153.7,3.185,0.268,22.16,108.78,21.76,22.79,32.98,0,111.1,13.04,22.59,115.7
"2016-06-26 00:43:30",1755376,5.633,150.8,5.589,0.33,22.11,108.784,21.77,22.78,32.95,0,111.1,13.04,22.60,112.8
"2016-06-26 00:44:00",1755377,6.504,153,3.283,0.34,22.19,108.7813,21.76,22.8,33.05,0,111.1,13.04,22.59,115.0
"2016-06-26 00:44:30",1755378,6.032,152.5,2.556,0.254,22.19,108.7834,21.77,22.79,33.1,0,111.1,13.04,22.60,114.5
"2016-06-26 00:45:00",1755379,6.342,148.3,1.853,0.158,22.22,108.7831,21.77,22.81,33.41,0,111.1,13.05,22.60,110.3
"2016-06-26 00:45:30",1755380,5.592,150.6,4.257,0.289,22.21,108.7852,21.77,22.8,33.46,0,111.1,13.05,22.60,112.6
"2016-06-26 00:46:00",1755381,5.348,152.1,3.944,0.4,22.19,108.7825,21.77,22.8,33.19,0,111.1,13.05,22.60,114.1
"2016-06-26 00:46:30",1755382,5.75,145.7,3.774,0.63,22.24,108.784,21.77,22.79,33.36,0,111.1,13.05,22.60,107.7
"2016-06-26 00:47:00",1755383,5.573,148.8,2.877,0.277,22.31,108.785,21.77,22.8,33.38,0,111.1,13.05,22.60,110.8
"2016-06-26 00:47:30",1755384,5.668,151,2.229,0.3,22.31,108.7859,21.78,22.79,33.38,0,111.1,13.05,22.60,113.0
"2016-06-26 00:48:00",1755385,4.214,152,1.907,0.329,22.23,108.7847,21.77,22.79,33.25,0,111.1,13.05,22.60,114.0
"2016-06-26 00:48:30",1755386,3.68,153.5,3.737,0.225,22.2,108.784,21.77,22.8,33.23,0,111.1,13.05,22.60,115.5
"2016-06-26 00:49:00",1755387,4.439,162.2,5.621,0.329,22.21,108.7843,21.77,22.8,33.21,0,111.1,13.05,22.60,124.2
"2016-06-26 00:49:30",1755388,4.799,152.8,6.522,0.418,22.18,108.7847,21.77,22.8,33.18,0,111.1,13.05,22.60,114.8
"2016-06-26 00:50:00",1755389,5.275,157.6,2.807,0.268,22.23,108.7852,21.77,22.8,33.28,0,111.1,13.05,22.60,119.6
"2016-06-26 00:50:30",1755390,5.245,164.9,2.9,0.183,22.26,108.7875,21.78,22.8,33.19,0,111.1,13.05,22.61,126.9
"2016-06-26 00:51:00",1755391,5.255,173.6,3.971,0.308,22.27,108.7863,21.78,22.8,33.35,0,111.1,13.05,22.61,135.6
"2016-06-26 00:51:30",1755392,5.087,174,6.727,0.298,22.26,108.7884,21.78,22.81,33.45,0,111.1,13.05,22.61,136.0
"2016-06-26 00:52:00",1755393,5.059,175.4,4.057,0.61,22.21,108.7919,21.79,22.8,33.25,0,111.1,13.05,22.62,137.4
"2016-06-26 00:52:30",1755394,5.497,160.3,3.558,0.365,22.23,108.7926,21.79,22.8,33.1,0,111.1,13.05,22.62,122.3
"2016-06-26 00:53:00",1755395,5.517,157.6,2.582,0.159,22.2,108.7873,21.78,22.81,33.01,0,111.1,13.05,22.61,119.6
"2016-06-26 00:53:30",1755396,5.759,156.4,3.538,0.444,22.26,108.7906,21.79,22.81,33.55,0,111.1,13.05,22.62,118.4
"2016-06-26 00:54:00",1755397,5.757,164,3.859,0.413,22.29,108.7866,21.78,22.82,33.87,0,111.1,13.05,22.61,126.0
"2016-06-26 00:54:30",1755398,4.944,165.2,4.027,0.162,22.26,108.7893,21.79,22.8,33.79,0,111.1,13.05,22.61,127.2
"2016-06-26 00:55:00",1755399,5.158,160.4,2.252,0.324,22.23,108.7897,21.79,22.81,33.46,0,111.1,13.05,22.61,122.4
"2016-06-26 00:55:30",1755400,5.891,162.3,1.805,0.334,22.21,108.7867,21.78,22.8,33.23,0,111.1,13.05,22.61,124.3
"2016-06-26 00:56:00",1755401,5.232,158.2,2.643,0.217,22.19,108.7858,21.78,22.8,33.16,0,111.1,13.05,22.60,120.2
"2016-06-26 00:56:30",1755402,5.254,162.8,3.505,0.478,22.2,108.7821,21.77,22.8,33.1,0,111.1,13.05,22.59,124.8
"2016-06-26 00:57:00",1755403,4.74,156.1,4.704,0.231,22.2,108.7815,21.77,22.81,33.01,0,111.1,13.05,22.59,118.1
"2016-06-26 00:57:30",1755404,4.594,156.2,3.082,0.44,22.19,108.781,21.76,22.79,32.98,0,111.1,13.05,22.59,118.2
"2016-06-26 00:58:00",1755405,5.221,151.3,2.366,0.127,22.21,108.7816,21.77,22.79,33.12,0,111.1,13.04,22.59,113.3
"2016-06-26 00:58:30",1755406,5.114,154.4,2.665,0.223,22.26,108.7855,21.78,22.8,32.92,0,111.1,13.04,22.60,116.4
"2016-06-26 00:59:00",1755407,4.346,150.6,2.927,0.207,22.26,108.7881,21.78,22.79,32.7,0,111.1,13.04,22.61,112.6
"2016-06-26 00:59:30",1755408,4.187,151.2,2.957,0.201,22.18,108.7915,21.79,22.79,32.68,0,111.1,13.04,22.62,113.2
"2016-06-26 01:00:00",1755409,4.113,155,5.66,0.192,22.18,108.7934,21.8,22.79,32.91,0,111.1,13.04,22.62,117.0
"2016-06-26 01:00:30",1755410,4.198,156.7,4.064,0.204,22.16,108.797,21.81,22.81,32.84,0,111.1,13.04,22.63,118.7
"2016-06-26 01:01:00",1755411,4.127,158.5,4.291,0.244,22.12,108.8044,21.82,22.82,32.92,0,111.1,13.04,22.65,120.5
"2016-06-26 01:01:30",1755412,4.279,159.8,2.399,0.197,22.12,108.8127,21.85,22.81,33.12,0,111.1,13.04,22.67,121.8
"2016-06-26 01:02:00",1755413,4.313,166.9,6.145,0.403,22.17,108.8172,21.86,22.82,33.16,0,111.1,13.05,22.69,128.9
"2016-06-26 01:02:30",1755414,5.101,160.5,1.636,0.106,22.15,108.8175,21.86,22.83,33.06,0,111.1,13.05,22.69,122.5
"2016-06-26 01:03:00",1755415,4.745,155.4,3.015,0.242,22.13,108.815,21.85,22.83,33.01,0,111.1,13.05,22.68,117.4
"2016-06-26 01:03:30",1755416,4.732,163.7,3.418,0.326,22.17,108.8178,21.86,22.82,32.94,0,111.1,13.05,22.69,125.7
"2016-06-26 01:04:00",1755417,5.149,173.3,5.011,0.593,22.15,108.8159,21.85,22.84,32.96,0,111.1,13.05,22.68,135.3
"2016-06-26 01:04:30",1755418,4.842,175.9,3.189,0.602,22.2,108.8162,21.85,22.83,33.04,0,111.1,13.05,22.68,137.9
"2016-06-26 01:05:00",1755419,4.314,172.6,6.051,0.429,22.2,108.8132,21.85,22.84,33,0,111.1,13.05,22.67,134.6
"2016-06-26 01:05:30",1755420,4.692,157.3,2.339,0.246,22.16,108.8184,21.86,22.83,32.9,0,111.1,13.05,22.69,119.3
"2016-06-26 01:06:00",1755421,4.532,156.6,2.367,0.393,22.16,108.8175,21.86,22.82,32.86,0,111.1,13.05,22.69,118.6
"2016-06-26 01:06:30",1755422,4.645,163.7,6.945,0.533,22.2,108.8165,21.86,22.84,32.9,0,111.1,13.05,22.68,125.7
"2016-06-26 01:07:00",1755423,4.562,179.1,5.086,0.486,22.2,108.815,21.85,22.81,33.12,0,111.1,13.05,22.68,141.1
"2016-06-26 01:07:30",1755424,3.325,164.7,7.437,0.33,22.19,108.8156,21.85,22.82,33.05,0,111.1,13.05,22.68,126.7
"2016-06-26 01:08:00",1755425,4.591,163.8,3.091,0.199,22.21,108.8087,21.84,22.82,32.98,0,111.1,13.05,22.66,125.8
"2016-06-26 01:08:30",1755426,4.2,163.6,3.904,0.126,22.21,108.8061,21.83,22.83,32.89,0,111.1,13.05,22.66,125.6
"2016-06-26 01:09:00",1755427,4.399,164.2,2.659,0.246,22.2,108.8111,21.84,22.82,32.92,0,111.1,13.05,22.67,126.2
"2016-06-26 01:09:30",1755428,4.341,169.1,3.047,0.185,22.25,108.8142,21.85,22.81,32.93,0,111.1,13.05,22.68,131.1
"2016-06-26 01:10:00",1755429,3.716,165.7,2.098,0.325,22.19,108.8145,21.85,22.81,32.94,0,111.1,13.05,22.68,127.7
"2016-06-26 01:10:30",1755430,3.301,157.7,2.321,0.135,22.15,108.8151,21.85,22.82,32.96,0,111.1,13.05,22.68,119.7
"2016-06-26 01:11:00",1755431,3.242,156.4,3.582,0.14,22.13,108.8184,21.86,22.82,32.95,0,111.1,13.05,22.69,118.4
"2016-06-26 01:11:30",1755432,3.464,155.5,2.934,0.116,22.11,108.8163,21.85,22.82,32.9,0,111.1,13.05,22.68,117.5
"2016-06-26 01:12:00",1755433,3.608,163.6,5.564,0.163,22.12,108.8181,21.86,22.82,32.84,0,111.1,13.05,22.69,125.6
"2016-06-26 01:12:30",1755434,3.627,174.1,1.69,0.161,22.18,108.8153,21.85,22.83,32.87,0,111.1,13.05,22.68,136.1
"2016-06-26 01:13:00",1755435,4.022,174,5.385,0.214,22.16,108.8144,21.85,22.83,33.01,0,111.1,13.05,22.68,136.0
"2016-06-26 01:13:30",1755436,4.265,174.5,4.857,0.222,22.21,108.8116,21.84,22.83,32.87,0,111.1,13.05,22.67,136.5
"2016-06-26 01:14:00",1755437,4.598,170.7,3.054,0.244,22.21,108.8141,21.85,22.84,32.89,0,111.1,13.05,22.68,132.7
"2016-06-26 01:14:30",1755438,4.41,166.6,4.817,0.413,22.18,108.8129,21.85,22.83,32.91,0,111.1,13.04,22.67,128.6
"2016-06-26 01:15:00",1755439,3.956,176.9,2.775,0.233,22.25,108.8113,21.84,22.83,32.9,0,111.1,13.04,22.67,138.9
"2016-06-26 01:15:30",1755440,4.112,174.6,2.994,0.181,22.24,108.8123,21.84,22.85,32.88,0,111.1,13.04,22.67,136.6
"2016-06-26 01:16:00",1755441,4.021,173.3,4.015,0.329,22.17,108.8126,21.84,22.84,32.91,0,111.1,13.04,22.67,135.3
"2016-06-26 01:16:30",1755442,4.067,177.2,6.622,0.358,22.22,108.8141,21.85,22.84,33.02,0,111.1,13.04,22.68,139.2
"2016-06-26 01:17:00",1755443,3.795,180.9,5.002,0.24,22.27,108.8123,21.84,22.84,33.04,0,111.1,13.04,22.67,142.9
"2016-06-26 01:17:30",1755444,4.328,178.6,4.07,0.151,22.28,108.8162,21.85,22.85,33,0,111.1,13.04,22.68,140.6
"2016-06-26 01:18:00",1755445,4.752,175.2,5.485,0.31,22.23,108.8126,21.84,22.86,33.12,0,111.1,13.04,22.67,137.2
"2016-06-26 01:18:30",1755446,5.012,169.5,1.731,0.171,22.25,108.8162,21.85,22.86,33.35,0,111.1,13.04,22.68,131.5
"2016-06-26 01:19:00",1755447,4.725,168.6,1.802,0.094,22.29,108.8165,21.86,22.86,33.39,0,111.1,13.04,22.68,130.6
"2016-06-26 01:19:30",1755448,4.7,166.9,1.452,0.09,22.32,108.8147,21.85,22.84,33.37,0,111.1,13.04,22.68,128.9
"2016-06-26 01:20:00",1755449,4.435,167,2.107,0.221,22.28,108.8172,21.86,22.84,33.35,0,111.1,13.05,22.69,129.0
"2016-06-26 01:20:30",1755450,4.208,164.9,2.537,0.137,22.28,108.8031,21.82,22.84,33.26,0,111.1,13.05,22.65,126.9
"2016-06-26 01:21:00",1755451,4.463,164.2,1.806,0.117,22.26,108.7924,21.79,22.84,33.13,0,111.1,13.05,22.62,126.2
"2016-06-26 01:21:30",1755452,4.352,169.1,2.751,0.137,22.32,108.7862,21.78,22.81,33.18,0,111.1,13.05,22.61,131.1
"2016-06-26 01:22:00",1755453,4.49,171.6,2.367,0.244,22.33,108.785,21.77,22.81,33.23,0,111.1,13.05,22.60,133.6
"2016-06-26 01:22:30",1755454,4.591,168.1,1.787,0.179,22.33,108.7877,21.78,22.81,33.29,0,111.1,13.05,22.61,130.1
"2016-06-26 01:23:00",1755455,4.216,170.7,2.445,0.091,22.29,108.7874,21.78,22.8,33.36,0,111.1,13.05,22.61,132.7
"2016-06-26 01:23:30",1755456,3.809,170,3.733,0.325,22.33,108.7843,21.77,22.8,33.33,0,111.1,13.05,22.60,132.0
"2016-06-26 01:24:00",1755457,3.211,168,3.533,0.199,22.3,108.788,21.78,22.8,33.24,0,111.1,13.05,22.61,130.0
"2016-06-26 01:24:30",1755458,3.41,177.9,6.246,0.312,22.24,108.7902,21.79,22.78,33.26,0,111.1,13.05,22.62,139.9
"2016-06-26 01:25:00",1755459,3.646,186.5,3.907,0.282,22.29,108.7887,21.78,22.77,33.23,0,111.1,13.05,22.61,148.5
"2016-06-26 01:25:30",1755460,3.842,175.4,7.123,0.277,22.34,108.7881,21.78,22.76,33.21,0,111.1,13.05,22.61,137.4
"2016-06-26 01:26:00",1755461,3.56,174.7,2.891,0.199,22.31,108.785,21.77,22.75,33.25,0,111.1,13.05,22.60,136.7
"2016-06-26 01:26:30",1755462,3.844,180.1,4.446,0.276,22.28,108.7809,21.76,22.75,33.23,0,111.1,13.05,22.59,142.1
"2016-06-26 01:27:00",1755463,3.344,184.2,3.636,0.366,22.25,108.779,21.76,22.76,33.33,0,111.1,13.05,22.59,146.2
"2016-06-26 01:27:30",1755464,3.382,183,6.079,0.315,22.37,108.7806,21.76,22.74,33.21,0,111.1,13.05,22.59,145.0
"2016-06-26 01:28:00",1755465,2.946,190,3.177,0.137,22.34,108.7837,21.77,22.74,33.24,0,111.1,13.05,22.60,152.0
"2016-06-26 01:28:30",1755466,2.728,192.7,3.227,0.23,22.33,108.788,21.78,22.74,33.21,0,111.1,13.05,22.61,154.7
"2016-06-26 01:29:00",1755467,2.703,193.2,4.366,0.154,22.25,108.7912,21.79,22.75,33.27,0,111.1,13.05,22.62,155.2
"2016-06-26 01:29:30",1755468,2.721,187.9,3.761,0.123,22.24,108.7908,21.79,22.75,33.32,0,111.1,13.05,22.62,149.9
"2016-06-26 01:30:00",1755469,3.051,185.8,4.194,0.271,22.24,108.7923,21.79,22.76,33.32,0,111.1,13.05,22.62,147.8
"2016-06-26 01:30:30",1755470,3.38,184.6,3.643,0.147,22.29,108.7898,21.79,22.75,33.39,0,111.1,13.05,22.61,146.6
"2016-06-26 01:31:00",1755471,2.746,188,3.621,0.343,22.31,108.7905,21.79,22.76,33.39,0,111.1,13.05,22.62,150.0
"2016-06-26 01:31:30",1755472,2.678,188.5,5.312,0.233,22.26,108.792,21.79,22.77,33.36,0,111.1,13.05,22.62,150.5
"2016-06-26 01:32:00",1755473,2.854,196.7,5.91,0.213,22.24,108.7911,21.79,22.76,33.4,0,111.1,13.05,22.62,158.7
"2016-06-26 01:32:30",1755474,3.156,202,3.657,0.212,22.29,108.7902,21.79,22.78,33.44,0,111.1,13.05,22.62,164.0
"2016-06-26 01:33:00",1755475,2.826,198.3,3.974,0.183,22.3,108.7914,21.79,22.78,33.46,0,111.1,13.04,22.62,160.3
"2016-06-26 01:33:30",1755476,3.066,179.2,9.68,0.3,22.3,108.7923,21.79,22.78,33.39,0,111.1,13.04,22.62,141.2
"2016-06-26 01:34:00",1755477,3.03,179.7,2.844,0.173,22.33,108.7911,21.79,22.79,33.38,0,111.1,13.04,22.62,141.7
"2016-06-26 01:34:30",1755478,2.662,175.9,5.651,0.392,22.29,108.7911,21.79,22.79,33.36,0,111.1,13.04,22.62,137.9
"2016-06-26 01:35:00",1755479,2.257,172.6,7.887,0.173,22.28,108.7908,21.79,22.8,33.37,0,111.1,13.04,22.62,134.6
"2016-06-26 01:35:30",1755480,2.402,185.5,2.343,0.124,22.34,108.7925,21.79,22.78,33.35,0,111.1,13.04,22.62,147.5
"2016-06-26 01:36:00",1755481,2.681,180.2,1.695,0.154,22.28,108.796,21.8,22.79,33.33,0,111.1,13.04,22.63,142.2
"2016-06-26 01:36:30",1755482,2.813,182.9,4.24,0.382,22.25,108.7973,21.81,22.79,33.34,0,111.1,13.04,22.63,144.9
"2016-06-26 01:37:00",1755483,2.992,180.7,6.083,0.159,22.32,108.7992,21.81,22.81,33.41,0,111.1,13.05,22.64,142.7
"2016-06-26 01:37:30",1755484,2.702,189,4.515,0.145,22.3,108.801,21.82,22.82,33.44,0,111.1,13.05,22.64,151.0
"2016-06-26 01:38:00",1755485,2.371,192.6,2.963,0.116,22.32,108.8058,21.83,22.83,33.46,0,111.1,13.05,22.66,154.6
"2016-06-26 01:38:30",1755486,2.439,186.5,3.425,0.097,22.36,108.8134,21.85,22.82,33.43,0,111.1,13.05,22.68,148.5
"2016-06-26 01:39:00",1755487,2.282,187.6,3.847,0.157,22.34,108.817,21.86,22.82,33.41,0,111.1,13.05,22.68,149.6
"2016-06-26 01:39:30",1755488,2.629,187.9,3.725,0.144,22.4,108.8233,21.87,22.81,33.42,0,111.1,13.05,22.70,149.9
"2016-06-26 01:40:00",1755489,2.13,190.2,5.922,0.158,22.32,108.8241,21.87,22.83,33.42,0,111.1,13.05,22.70,152.2
"2016-06-26 01:40:30",1755490,2.259,191.9,5.032,0.144,22.34,108.826,21.88,22.83,33.4,0,111.1,13.05,22.71,153.9
"2016-06-26 01:41:00",1755491,2.149,191.4,1.708,0.084,22.35,108.8266,21.88,22.83,33.4,0,111.1,13.05,22.71,153.4
"2016-06-26 01:41:30",1755492,1.964,194,5.671,0.133,22.35,108.8263,21.88,22.84,33.39,0,111.1,13.05,22.71,156.0
"2016-06-26 01:42:00",1755493,1.708,199.8,4.895,0.2,22.34,108.8266,21.88,22.84,33.38,0,111.1,13.05,22.71,161.8
"2016-06-26 01:42:30",1755494,1.46,184.9,4.597,0.131,22.33,108.8269,21.88,22.85,33.35,0,111.1,13.05,22.71,146.9
"2016-06-26 01:43:00",1755495,1.488,188.2,3.833,0.122,22.32,108.8272,21.88,22.85,33.37,0,111.1,13.05,22.71,150.2
"2016-06-26 01:43:30",1755496,1.714,189.3,6.01,0.119,22.42,108.8263,21.88,22.85,33.36,0,111.1,13.05,22.71,151.3
"2016-06-26 01:44:00",1755497,1.593,189.2,7.652,0.134,22.35,108.8272,21.88,22.86,33.32,0,111.1,13.05,22.71,151.2
"2016-06-26 01:44:30",1755498,1.631,198.5,2.959,0.173,22.35,108.8272,21.88,22.86,33.34,0,111.1,13.05,22.71,160.5
"2016-06-26 01:45:00",1755499,1.7,205.6,4.541,0.131,22.39,108.8269,21.88,22.87,33.39,0,111.1,13.05,22.71,167.6
"2016-06-26 01:45:30",1755500,1.565,210.3,2.609,0.138,22.39,108.8272,21.88,22.88,33.42,0,111.1,13.05,22.71,172.3
"2016-06-26 01:46:00",1755501,1.501,211.5,1.209,0.067,22.35,108.8266,21.88,22.89,33.41,0,111.1,13.05,22.71,173.5
"2016-06-26 01:46:30",1755502,1.454,211.1,4.526,0.044,22.38,108.8272,21.88,22.88,33.41,0,111.1,13.05,22.71,173.1